[[{"header":{"parameterUnit":"m.s-1","parameterCategory":1,"la1":30.2991,"la2":30.254,"lo1":-89.0895,"lo2":-89.0444,"dy":0.0017,"dx":0.0017,"nx":28,"ny":28,"refTime":"2023-09-17T09:00:00:Z","depth":0,"parameterNumber":2,"parameterNumberName":"U-component_of_WINDS"},"data":[0,0,0,0,0,0,0,0,0,0,0,0,0,0,0,0,0,0,0,0,0,0,0,0,0,0,0,0,0,0,0,0,0,0,0,0,0,0,0,0,0,0,0,0,0,0,0,0,0,0,0,0,0,0,0,0,0,0,-1.0282,-1.0283,0,-1.0382,-1.0383,-1.0384,-1.031,-1.0307,-1.0303,-1.03,-1.0407,-1.0413,-1.0418,0,0,0,0,0,0,0,0,0,0,0,0,0,-1.0032,-1.0037,-1.0282,-1.0283,-1.0285,-1.0382,-1.0383,-1.0384,-1.0311,-1.0307,-1.0303,-1.0299,-1.0405,-1.0412,-1.0419,0,0,0,0,0,0,0,0,0,0,0,0,0,-1.0137,-1.0039,-1.0282,-1.0259,-1.0258,-1.0381,-1.0383,-1.0385,-1.0311,-1.0306,-1.0302,-1.0297,-1.0403,-1.0411,-1.042,-1.0572,0,0,-1.0447,-1.0451,0,0,0,0,0,0,0,0,-1.0131,-1.0147,-1.0261,-1.0261,-1.026,-1.0328,-1.0334,-1.0448,-1.0313,-1.0291,-1.03,-1.0295,-1.0385,-1.0395,-1.0425,-1.0577,-1.0581,-1.0448,-1.0453,-1.0457,-1.0459,0,0,0,0,0,0,0,-1.0124,-1.0142,-1.0322,-1.0263,-1.0262,-1.0246,-1.0255,-1.0355,-1.0365,-1.0293,-1.0288,-1.03,-1.0384,-1.0416,-1.0426,-1.0583,-1.0447,-1.0455,-1.0461,-1.0464,-1.0866,-1.0871,0,0,0,0,0,0,-1.0118,-1.0136,-1.0318,-1.0325,-1.0182,-1.0254,-1.0265,-1.0311,-1.0363,-1.0366,-1.0304,-1.0296,-1.0404,-1.0416,-1.043,-1.0613,-1.0457,-1.0465,-1.047,-1.0861,-1.0867,-1.0873,0,0,0,0,0,0,-1.0113,-1.0135,-1.0314,-1.0229,-1.0251,-1.0264,-1.0317,-1.0316,-1.0348,-1.0372,-1.0374,-1.0336,-1.04,-1.0418,-1.0537,-1.0615,-1.0469,-1.0477,-1.0855,-1.0863,-1.087,-1.0979,0,0,0,0,0,0,-1.0106,-1.0134,-1.0191,-1.0231,-1.0255,-1.0419,-1.0321,-1.0321,-1.0363,-1.0354,-1.0402,-1.0405,-1.0398,-1.0524,-1.0546,-1.0625,-1.0484,-1.0848,-1.0858,-1.0868,-1.0968,-1.0989,-1.1008,0,0,0,0,0,-1.0098,-1.0218,-1.0194,-1.0217,-1.0327,-1.0424,-1.0438,-1.0426,-1.037,-1.0428,-1.0443,-1.0403,-1.0602,-1.0537,-1.0561,-1.0644,-1.0843,-1.0855,-1.0867,-1.0959,-1.0985,-1.1007,0,0,0,0,0,0,-1.0189,-1.0223,-1.0197,-1.0333,-1.0376,-1.0411,-1.0484,-1.0454,-1.0515,-1.0504,-1.0487,-1.0499,-1.0625,-1.0645,-1.0572,-1.0794,-1.0714,-1.0731,-1.0776,-1.0801,-1.082,-1.0814,-1.0491,0,0,0,0,0,-1.0225,-1.0299,-1.0325,-1.0444,-1.0466,-1.0472,-1.0513,-1.05,-1.0545,-1.0563,-1.0586,-1.0632,-1.0705,-1.0753,-1.0822,-1.097,-1.098,-1.1038,-1.1058,-1.1074,-1.109,-1.1172,-1.1198,-1.0913,-1.0913,-1.0913,0,0,-1.03,-1.0328,-1.0376,-1.0463,-1.0494,-1.0573,-1.0487,-1.0575,-1.0634,-1.0576,-1.0691,-1.071,-1.076,-1.0895,-1.0955,-1.0916,-1.1171,-1.1089,-1.1102,-1.111,-1.1187,-1.1214,-1.1238,-1.0921,-1.092,-1.0919,0,0,-1.0478,-1.0506,-1.0608,-1.0641,-1.0689,-1.0691,-1.0716,-1.0755,-1.0766,-1.088,-1.0838,-1.0909,-1.1034,-1.1072,-1.1108,-1.1299,-1.1266,-1.1321,-1.1426,-1.1505,-1.1528,-1.1548,-1.1618,-1.1643,-1.1337,-1.1337,-1.1337,0,-1.0566,-1.0683,-1.0664,-1.0755,-1.0795,-1.0744,-1.0849,-1.0882,-1.0951,-1.098,-1.0934,-1.1091,-1.1121,-1.1265,-1.1311,-1.1341,-1.137,-1.1317,-1.1526,-1.1545,-1.1564,-1.1631,-1.1657,-1.1344,-1.1343,-1.1342,-1.1342,0,-1.079,-1.0871,-1.0948,-1.1014,-1.1062,-1.116,-1.1157,-1.1209,-1.1191,-1.1199,-1.1317,-1.135,-1.1425,-1.1457,-1.1442,-1.16,-1.1574,-1.1527,-1.1447,-1.1598,-1.1661,-1.1686,-1.1353,-1.1351,-1.1349,-1.1347,0,0,-1.1031,-1.1084,-1.1113,-1.1143,-1.1192,-1.1256,-1.135,-1.1422,-1.1467,-1.1516,-1.1597,-1.1703,-1.166,-1.1701,-1.1688,-1.1758,-1.191,-1.1703,-1.1704,-1.1742,-1.2088,-1.2125,-1.2155,-1.1887,-1.1891,-1.1895,-1.2085,0,-1.1213,-1.1377,-1.1363,-1.152,-1.1596,-1.1548,-1.1631,-1.1671,-1.1681,-1.1747,-1.1758,-1.1835,-1.1771,-1.1796,-1.1862,-1.1877,-1.198,-1.1863,-1.1964,-1.1968,-1.1956,-1.2187,-1.2227,-1.2404,-1.2109,-1.2113,-1.2116,0,-1.1448,-1.1504,-1.1668,-1.1705,-1.1737,-1.1812,-1.1877,-1.194,-1.1985,-1.1987,-1.2031,-1.2007,-1.2104,-1.202,-1.2155,-1.2076,-1.2116,-1.2129,-1.2136,-1.2147,-1.2053,-1.2208,-1.246,-1.2488,-1.2154,-1.2151,-1.2148,0,-1.1611,-1.1726,-1.184,-1.1866,-1.1913,-1.1967,-1.1989,-1.2028,-1.2072,-1.2129,-1.2157,-1.2225,-1.2263,-1.2317,-1.2312,-1.225,-1.245,-1.2364,-1.2456,-1.2457,-1.2503,-1.2501,-1.2768,-1.2524,-1.2524,-1.2523,-1.2523,0,-1.1818,-1.192,-1.1913,-1.1983,-1.2097,-1.208,-1.2194,-1.221,-1.2245,-1.2318,-1.2281,-1.2351,-1.2339,-1.2409,-1.2406,-1.2519,-1.2536,-1.2542,-1.254,-1.2547,-1.2547,-1.2575,-1.2564,-1.253,-1.2529,-1.2528,-1.2526,0,-1.202,-1.2019,-1.2139,-1.2172,-1.2183,-1.2266,-1.2295,-1.2362,-1.2367,-1.2461,-1.2482,-1.2492,-1.2572,-1.2572,-1.2664,-1.2662,-1.2802,-1.2785,-1.2787,-1.2784,-1.2877,-1.287,-1.3175,-1.3215,-1.2943,-1.2945,-1.2947,0,-1.2153,-1.2231,-1.2272,-1.2318,-1.2343,-1.2417,-1.2461,-1.2447,-1.2495,-1.2551,-1.2612,-1.2689,-1.275,-1.2882,-1.2898,-1.2968,-1.2955,-1.3057,-1.2965,-1.297,-1.2959,-1.2956,-1.2964,-1.3076,-1.3079,-1.3081,-1.3083,0,-1.2391,-1.2386,-1.2451,-1.2516,-1.257,-1.2621,-1.2668,-1.2707,-1.2699,-1.2755,-1.2836,-1.2883,-1.2977,-1.3055,-1.3122,-1.3146,-1.3115,-1.3111,-1.3137,-1.3146,-1.3145,-1.3149,-1.2838,-1.3105,-1.3103,-1.3101,-1.31,-1.3099,-1.2565,-1.2632,-1.2671,-1.2745,-1.2778,-1.2823,-1.2887,-1.29,-1.2968,-1.3042,-1.3029,-1.3121,-1.3164,-1.3251,-1.3281,-1.3354,-1.3318,-1.3354,-1.3364,-1.3374,-1.3386,-1.3131,-1.3366,-1.3365,-1.3364,-1.3364,-1.3363,0,-1.2803,-1.2825,-1.2893,-1.2959,-1.3017,-1.2979,-1.3029,-1.3081,-1.3161,-1.3203,-1.3263,-1.3358,-1.3432,-1.3454,-1.3526,-1.358,-1.3568,-1.36,-1.3597,-1.3604,-1.3412,-1.3384,-1.3609,-1.3609,-1.3609,-1.3609,-1.3609,-1.3609,-1.2934,-1.3046,-1.3046,-1.3175,-1.3197,-1.3285,-1.3317,-1.3359,-1.3392,-1.3498,-1.356,-1.3572,-1.3606,-1.3681,-1.3748,-1.3752,-1.3782,-1.3821,-1.382,-1.3642,-1.3617,-1.3594,-1.3567,-1.3827,-1.3828,-1.4006,-1.4008,-1.4009]},{"header":{"parameterUnit":"m.s-1","parameterCategory":1,"la1":30.2991,"la2":30.254,"lo1":-89.0895,"lo2":-89.0444,"dy":0.0017,"dx":0.0017,"nx":28,"ny":28,"refTime":"2023-09-17T09:00:00:Z","depth":0,"parameterNumber":3,"parameterNumberName":"V-component_of_WINDS"},"data":[0,0,0,0,0,0,0,0,0,0,0,0,0,0,0,0,0,0,0,0,0,0,0,0,0,0,0,0,0,0,0,0,0,0,0,0,0,0,0,0,0,0,0,0,0,0,0,0,0,0,0,0,0,0,0,0,0,0,-3.0521,-3.0521,0,-3.0576,-3.0576,-3.0577,-3.0534,-3.0532,-3.053,-3.0528,-3.0582,-3.0586,-3.0589,0,0,0,0,0,0,0,0,0,0,0,0,0,-3.0375,-3.0378,-3.0521,-3.0521,-3.0522,-3.0576,-3.0576,-3.0577,-3.0534,-3.0532,-3.053,-3.0528,-3.0581,-3.0585,-3.0589,0,0,0,0,0,0,0,0,0,0,0,0,0,-3.0435,-3.0379,-3.052,-3.0507,-3.0506,-3.0576,-3.0576,-3.0577,-3.0535,-3.0532,-3.0529,-3.0526,-3.058,-3.0585,-3.0589,-3.0674,0,0,-3.0604,-3.0606,0,0,0,0,0,0,0,0,-3.0432,-3.044,-3.0508,-3.0508,-3.0507,-3.0545,-3.0545,-3.061,-3.0535,-3.0524,-3.0528,-3.0525,-3.0572,-3.0577,-3.0594,-3.0677,-3.0679,-3.0604,-3.0607,-3.0609,-3.0611,0,0,0,0,0,0,0,-3.0428,-3.0438,-3.0542,-3.0509,-3.0509,-3.0497,-3.0503,-3.0557,-3.0563,-3.0525,-3.0522,-3.0529,-3.0571,-3.0589,-3.0595,-3.068,-3.0604,-3.0608,-3.0611,-3.0613,-3.0834,-3.0837,0,0,0,0,0,0,-3.0425,-3.0435,-3.054,-3.0544,-3.0462,-3.0502,-3.0508,-3.0536,-3.0562,-3.0563,-3.0531,-3.0527,-3.0583,-3.0589,-3.0596,-3.0697,-3.0609,-3.0614,-3.0616,-3.0831,-3.0835,-3.0838,0,0,0,0,0,0,-3.0422,-3.0435,-3.0538,-3.0489,-3.0501,-3.0508,-3.0539,-3.0538,-3.0556,-3.0567,-3.0568,-3.0549,-3.0581,-3.059,-3.0655,-3.0698,-3.0616,-3.062,-3.0827,-3.0832,-3.0836,-3.0898,0,0,0,0,0,0,-3.0418,-3.0434,-3.0467,-3.049,-3.0504,-3.0597,-3.0542,-3.0541,-3.0565,-3.0559,-3.0584,-3.0585,-3.0579,-3.0648,-3.066,-3.0703,-3.0624,-3.0824,-3.0829,-3.0835,-3.0892,-3.0904,-3.0915,0,0,0,0,0,-3.0413,-3.0482,-3.0469,-3.0482,-3.0545,-3.06,-3.0608,-3.06,-3.0568,-3.0601,-3.0608,-3.0584,-3.0692,-3.0655,-3.0668,-3.0713,-3.0821,-3.0828,-3.0834,-3.0887,-3.0902,-3.0914,0,0,0,0,0,0,-3.0464,-3.0485,-3.0471,-3.0549,-3.0573,-3.0592,-3.0633,-3.0616,-3.0649,-3.0643,-3.0631,-3.0637,-3.0706,-3.0716,-3.0675,-3.0796,-3.0751,-3.0761,-3.0787,-3.0801,-3.0812,-3.0807,-3.0628,0,0,0,0,0,-3.0484,-3.0527,-3.0543,-3.0611,-3.0624,-3.0627,-3.065,-3.0642,-3.0666,-3.0676,-3.0688,-3.0711,-3.075,-3.0776,-3.0813,-3.0894,-3.0898,-3.0931,-3.0942,-3.0951,-3.0959,-3.1002,-3.1017,-3.086,-3.086,-3.086,0,0,-3.0526,-3.0543,-3.0571,-3.0621,-3.0639,-3.0683,-3.0635,-3.0684,-3.0717,-3.0683,-3.0746,-3.0755,-3.0781,-3.0854,-3.0887,-3.0865,-3.1004,-3.096,-3.0967,-3.097,-3.1011,-3.1026,-3.1039,-3.0865,-3.0864,-3.0863,0,0,-3.0626,-3.0643,-3.0701,-3.072,-3.0748,-3.0749,-3.0763,-3.0785,-3.0791,-3.0853,-3.0829,-3.0867,-3.0935,-3.0953,-3.0972,-3.1079,-3.1058,-3.1091,-3.1148,-3.119,-3.1203,-3.1214,-3.1251,-3.1264,-3.1099,-3.1099,-3.1099,0,-3.0674,-3.0741,-3.0733,-3.0784,-3.0806,-3.0779,-3.0837,-3.0855,-3.0893,-3.0909,-3.0884,-3.0968,-3.0983,-3.106,-3.1086,-3.1102,-3.1117,-3.1088,-3.1202,-3.1213,-3.1223,-3.1258,-3.1272,-3.1103,-3.1103,-3.1102,-3.1102,0,-3.0799,-3.0846,-3.0889,-3.0927,-3.0955,-3.1009,-3.1008,-3.1036,-3.1026,-3.103,-3.1094,-3.1111,-3.1151,-3.1169,-3.1159,-3.1244,-3.123,-3.1203,-3.1158,-3.1241,-3.1274,-3.1288,-3.1108,-3.1107,-3.1106,-3.1105,0,0,-3.0932,-3.0965,-3.0981,-3.0998,-3.1026,-3.1062,-3.1114,-3.1153,-3.1177,-3.1204,-3.1248,-3.1305,-3.1281,-3.1302,-3.1295,-3.1331,-3.1414,-3.13,-3.1301,-3.132,-3.1508,-3.1527,-3.1543,-3.14,-3.1403,-3.1405,-3.1506,0,-3.1032,-3.1125,-3.1119,-3.1206,-3.1248,-3.1222,-3.1268,-3.129,-3.1295,-3.1331,-3.1336,-3.1377,-3.1342,-3.1355,-3.139,-3.1396,-3.1451,-3.1389,-3.1439,-3.1441,-3.1433,-3.1561,-3.1581,-3.1676,-3.1519,-3.1521,-3.1522,0,-3.1162,-3.1194,-3.1285,-3.1307,-3.1324,-3.1366,-3.1401,-3.1436,-3.146,-3.1461,-3.1484,-3.147,-3.1522,-3.1476,-3.1547,-3.1505,-3.1525,-3.1531,-3.1535,-3.1539,-3.1487,-3.1567,-3.1706,-3.1719,-3.1543,-3.1541,-3.154,0,-3.1249,-3.1315,-3.1378,-3.1393,-3.142,-3.1449,-3.1462,-3.1483,-3.1507,-3.1537,-3.1552,-3.1588,-3.1608,-3.1635,-3.1631,-3.1598,-3.1703,-3.1657,-3.1705,-3.1705,-3.1727,-3.1726,-3.187,-3.1742,-3.1741,-3.1741,-3.1741,0,-3.1361,-3.1418,-3.1417,-3.1456,-3.1518,-3.151,-3.1572,-3.1581,-3.16,-3.1639,-3.1619,-3.1656,-3.1648,-3.1685,-3.1682,-3.1741,-3.175,-3.1751,-3.1749,-3.1753,-3.1752,-3.1765,-3.1758,-3.1745,-3.1744,-3.1743,-3.1743,0,-3.1469,-3.1471,-3.1537,-3.1558,-3.1564,-3.1609,-3.1626,-3.1662,-3.1665,-3.1715,-3.1726,-3.1731,-3.1773,-3.1772,-3.1819,-3.1817,-3.1889,-3.188,-3.1882,-3.1879,-3.1927,-3.1923,-3.2084,-3.2105,-3.1964,-3.1965,-3.1966,0,-3.154,-3.1583,-3.1608,-3.1633,-3.1648,-3.1689,-3.1713,-3.1707,-3.1733,-3.1763,-3.1795,-3.1836,-3.1867,-3.1936,-3.1943,-3.1979,-3.197,-3.2024,-3.1975,-3.1977,-3.197,-3.1968,-3.1971,-3.2034,-3.2035,-3.2037,-3.2038,0,-3.1666,-3.1665,-3.1701,-3.1738,-3.1768,-3.1796,-3.1822,-3.1844,-3.184,-3.187,-3.1913,-3.1938,-3.1987,-3.2027,-3.2061,-3.2073,-3.2055,-3.2053,-3.2066,-3.207,-3.2068,-3.2069,-3.1907,-3.2049,-3.2048,-3.2047,-3.2047,-3.2046,-3.1757,-3.1794,-3.1818,-3.1858,-3.1878,-3.1902,-3.1937,-3.1945,-3.1981,-3.2021,-3.2015,-3.2063,-3.2085,-3.2129,-3.2144,-3.2181,-3.2162,-3.2181,-3.2185,-3.219,-3.2195,-3.2063,-3.2187,-3.2187,-3.2187,-3.2186,-3.2186,0,-3.1882,-3.1896,-3.1934,-3.1971,-3.2003,-3.1984,-3.2012,-3.2039,-3.2082,-3.2105,-3.2137,-3.2186,-3.2224,-3.2235,-3.2272,-3.2299,-3.2292,-3.2309,-3.2307,-3.2309,-3.2211,-3.2195,-3.2314,-3.2314,-3.2314,-3.2314,-3.2314,-3.2314,-3.1951,-3.2012,-3.2013,-3.2083,-3.2096,-3.2144,-3.2161,-3.2184,-3.2202,-3.2258,-3.229,-3.2297,-3.2314,-3.2352,-3.2387,-3.2389,-3.2403,-3.2423,-3.2422,-3.2329,-3.2316,-3.2304,-3.229,-3.2427,-3.2427,-3.2518,-3.2518,-3.2519]}]]